Temp
14 14 14 14 14 13 13 13 12 13 12 12 12 12 12 12 12 12 13 12 11 10 10 10 9 9 9 9 9 9 9 9 9 9 9 9 8 8 8 8 7 7 8 8 8 8 8 8 8
14 14 14 14 13 13 12 12 12 13 13 12 12 12 12 12 12 13 13 12 11 10 10 10 9 9 9 9 9 9 9 9 9 9 8 8 8 8 8 7 7 7 7 7 7 8 8 8 8
13 14 14 14 13 12 11 12 12 12 12 12 13 12 12 12 13 12 12 12 11 10 10 10 9 9 9 9 9 9 9 9 9 9 8 8 8 8 7 7 7 7 8 8 8 7 7 7 7
13 13 13 13 13 12 11 11 11 12 13 12 13 12 12 12 11 11 12 12 11 10 10 10 9 9 9 9 9 9 9 9 9 8 8 8 8 7 7 7 8 8 8 8 8 8 8 7 7
13 13 13 12 12 12 13 12 11 12 13 13 13 13 12 11 10 10 11 11 11 10 10 9 9 9 9 9 9 9 9 9 8 8 8 8 8 8 8 8 8 8 8 8 8 8 8 8 8
13 13 13 12 12 12 11 12 12 12 13 13 13 13 12 11 10 10 11 10 10 9 9 9 9 8 9 8 8 8 9 8 8 8 8 8 8 8 8 8 8 7 7 8 8 8 8 8 7
14 13 14 13 12 12 12 12 12 13 13 12 12 12 12 10 9 9 10 10 9 9 9 8 8 8 8 8 8 8 8 8 8 8 8 8 8 8 8 8 8 8 8 8 8 8 8 8 8
14 13 14 14 13 12 12 12 12 12 12 12 12 12 12 11 9 9 9 9 9 9 9 8 8 8 8 8 8 8 8 8 8 8 8 8 8 8 8 8 8 8 8 8 8 8 8 8 8
14 14 14 14 14 14 13 13 13 12 12 12 12 12 11 11 10 9 9 9 9 9 9 8 8 8 8 8 8 8 8 7 7 8 8 8 8 8 8 8 8 8 7 8 8 8 8 8 8
14 15 14 14 14 14 14 14 13 13 12 12 12 12 12 11 10 9 9 9 9 9 9 9 9 8 8 8 8 8 8 8 7 7 8 8 8 8 8 8 7 7 7 7 8 8 8 8 8
15 15 15 15 14 14 15 15 14 13 12 13 13 12 12 11 10 9 9 9 9 9 9 9 9 8 8 8 8 8 8 8 7 7 8 8 8 9 8 8 8 8 7 8 8 8 8 8 8
16 16 15 15 15 14 15 15 14 13 13 14 14 11 11 11 10 10 9 9 10 9 9 9 9 8 8 8 8 8 8 7 7 7 8 8 8 8 8 8 8 8 8 8 8 7 7 8 8
15 15 15 15 15 15 14 14 14 14 14 14 14 13 11 11 10 10 9 9 9 10 10 9 9 9 9 9 9 8 8 8 8 8 8 8 8 8 8 8 8 8 8 8 8 8 7 7 8
16 16 16 15 15 15 15 15 15 15 14 14 14 14 13 11 11 10 10 10 9 10 10 9 9 9 9 9 9 8 8 9 9 8 8 8 9 8 8 8 8 8 8 8 8 7 7 7 8
16 16 16 16 16 16 15 15 16 14 15 14 14 14 13 13 12 11 10 10 9 9 9 9 9 9 9 9 9 9 8 8 8 8 8 8 8 8 8 8 8 8 8 8 8 8 7 7 8
16 16 16 16 16 16 16 16 16 15 15 15 14 14 13 13 13 12 11 10 9 9 9 9 9 9 9 9 9 9 8 8 8 8 9 9 8 8 8 7 8 8 8 9 8 8 8 8 8
16 16 16 16 16 16 16 16 16 16 15 15 15 15 14 13 13 13 12 11 10 10 9 9 9 9 9 9 9 9 9 8 8 9 9 9 9 8 8 8 8 8 8 9 9 9 8 8 8
16 16 15 17 17 16 17 17 17 17 16 15 15 15 15 14 14 14 13 11 11 10 10 9 9 9 9 9 9 9 9 9 8 8 9 9 9 9 9 8 9 9 9 9 9 9 9 9 9
16 16 16 17 17 17 17 17 17 17 16 16 16 15 16 15 14 13 13 12 11 11 10 9 9 8 8 9 9 9 9 9 8 8 8 9 9 9 8 9 9 9 8 9 9 9 9 8 8
16 16 16 17 17 17 17 17 17 17 17 17 17 16 16 15 15 14 14 13 12 11 10 10 9 9 9 9 9 10 9 9 9 9 9 9 9 9 9 9 9 9 8 9 8 8 9 9 8
16 17 17 17 17 17 17 17 18 17 18 17 17 16 15 16 15 15 14 14 12 11 11 10 10 9 9 10 10 10 10 10 9 9 9 10 9 9 9 9 9 9 9 8 8 8 9 9 9
16 17 17 17 17 17 17 17 18 18 18 18 17 17 16 16 15 15 14 14 13 12 11 11 10 10 10 10 11 11 10 10 9 9 9 9 9 9 9 9 9 9 8 8 8 9 9 9 9
17 17 17 17 17 17 17 16 18 17 18 17 17 17 17 16 16 15 15 14 13 12 11 11 10 10 10 10 11 11 11 10 10 10 9 9 9 9 9 9 9 9 8 9 9 9 9 9 9
17 17 17 17 17 15 16 16 16 16 17 17 18 17 17 16 16 15 14 14 13 13 12 11 11 10 10 10 10 10 10 10 10 10 10 9 9 9 9 9 9 9 8 9 8 9 9 9 9
17 17 16 15 12 13 16 15 12 16 17 17 17 17 17 16 16 15 15 14 13 13 12 12 11 11 10 10 10 10 10 10 10 10 10 10 10 9 9 9 9 9 9 8 9 9 9 9 9
17 17 16 14 11 13 15 13 12 14 16 17 17 17 17 17 16 15 14 14 13 13 13 12 12 11 10 10 10 10 10 9 9 10 10 10 10 10 9 9 9 9 9 9 9 9 9 9 9
17 17 17 17 15 14 14 12 12 13 15 16 16 16 17 16 16 15 14 14 13 13 12 12 12 11 10 10 9 10 10 9 9 9 9 10 10 10 9 9 9 9 9 9 9 9 9 9 9
17 17 17 17 13 14 14 14 14 13 14 14 15 15 15 15 15 15 15 14 13 14 14 12 10 11 10 9 10 10 10 10 9 9 9 9 9 9 9 9 9 9 9 9 9 9 9 9 9
16 16 16 16 15 11 10 14 13 14 14 14 15 15 15 15 15 14 13 13 13 13 13 12 12 11 12 11 10 10 10 9 9 10 10 9 9 9 9 9 9 9 9 9 9 9 9 9 9
16 16 15 15 15 15 13 13 14 13 14 14 14 14 14 14 14 12 11 12 12 12 12 13 12 11 11 11 11 9 10 10 10 10 10 10 10 9 9 9 9 9 9 9 9 9 9 9 9
Height
3170 3170 3167 3169 3171 3168 3168 3172 3169 3169 3169 3169 3170 3170 3171 3171 3171 3174 3170 3172 3173 3175 3177 3179 3181 3184 3187 3189 3192 3193 3194 3196 3198 3199 3201 3202 3204 3205 3206 3206 3207 3208 3210 3210 3212 3213 3214 3214 3215
3170 3169 3169 3169 3170 3169 3172 3173 3172 3170 3170 3171 3173 3172 3171 3171 3169 3169 3171 3172 3174 3176 3178 3181 3182 3185 3187 3190 3193 3194 3196 3198 3199 3201 3202 3203 3204 3206 3206 3206 3207 3209 3210 3210 3211 3212 3213 3213 3214
3171 3170 3170 3171 3172 3171 3173 3173 3172 3170 3171 3172 3173 3172 3171 3168 3169 3170 3172 3174 3175 3177 3180 3182 3184 3186 3188 3191 3193 3195 3197 3199 3200 3202 3202 3204 3205 3205 3206 3207 3208 3209 3209 3211 3211 3211 3212 3213 3213
3173 3174 3174 3172 3172 3173 3174 3173 3174 3173 3170 3171 3171 3171 3171 3169 3170 3173 3174 3176 3177 3179 3181 3183 3186 3187 3189 3191 3194 3196 3198 3200 3202 3203 3204 3205 3205 3206 3207 3207 3208 3209 3210 3210 3211 3211 3211 3213 3213
3174 3174 3174 3175 3173 3174 3175 3175 3170 3175 3170 3170 3170 3171 3172 3170 3171 3173 3175 3177 3178 3180 3182 3184 3186 3188 3191 3193 3195 3196 3199 3200 3202 3203 3205 3205 3206 3207 3207 3207 3208 3208 3209 3210 3210 3211 3210 3211 3212
3175 3175 3176 3176 3176 3174 3172 3173 3173 3172 3171 3170 3170 3171 3171 3170 3172 3173 3175 3177 3178 3181 3183 3184 3186 3188 3191 3193 3195 3197 3199 3201 3201 3203 3205 3204 3205 3206 3207 3207 3207 3208 3209 3209 3209 3210 3211 3211 3212
3177 3177 3177 3177 3176 3174 3173 3173 3173 3173 3171 3171 3170 3170 3171 3169 3171 3172 3175 3177 3178 3180 3183 3184 3185 3187 3189 3192 3194 3196 3198 3199 3200 3202 3204 3204 3204 3205 3206 3207 3208 3208 3208 3209 3208 3210 3211 3211 3213
3178 3179 3179 3178 3177 3176 3173 3173 3174 3174 3171 3171 3169 3168 3171 3170 3172 3173 3175 3176 3179 3180 3182 3184 3185 3187 3190 3192 3194 3195 3196 3197 3199 3201 3202 3203 3204 3205 3206 3207 3208 3208 3208 3208 3209 3210 3211 3212 3213
3179 3181 3179 3178 3177 3176 3175 3175 3175 3174 3171 3168 3168 3167 3171 3171 3173 3174 3176 3176 3178 3181 3182 3184 3186 3188 3190 3191 3192 3194 3194 3196 3196 3199 3201 3203 3204 3205 3207 3207 3209 3208 3208 3208 3210 3209 3211 3212 3213
3179 3180 3179 3179 3178 3177 3176 3176 3174 3174 3172 3169 3167 3166 3169 3172 3174 3175 3177 3178 3180 3181 3183 3184 3186 3188 3190 3191 3191 3193 3193 3193 3195 3198 3201 3202 3204 3206 3207 3207 3208 3208 3209 3209 3210 3210 3211 3212 3214
3181 3180 3180 3179 3179 3178 3176 3175 3174 3174 3174 3169 3167 3167 3169 3172 3175 3175 3177 3179 3180 3182 3183 3184 3186 3187 3188 3189 3190 3192 3193 3192 3194 3196 3199 3202 3203 3205 3206 3207 3208 3207 3208 3209 3210 3210 3211 3213 3213
3181 3180 3180 3179 3179 3178 3177 3176 3175 3175 3174 3171 3167 3166 3169 3173 3174 3176 3178 3180 3180 3181 3183 3184 3187 3188 3188 3190 3190 3191 3191 3192 3194 3195 3199 3201 3203 3204 3205 3207 3207 3209 3208 3208 3210 3211 3211 3212 3213
3181 3180 3181 3180 3179 3179 3178 3177 3176 3176 3174 3173 3171 3169 3169 3172 3174 3176 3178 3181 3182 3183 3183 3184 3186 3188 3188 3189 3190 3189 3191 3191 3192 3195 3200 3201 3202 3203 3205 3205 3206 3208 3208 3208 3210 3211 3211 3212 3213
3180 3180 3181 3181 3180 3178 3178 3178 3177 3177 3175 3175 3174 3172 3172 3173 3175 3176 3178 3180 3182 3183 3183 3184 3186 3188 3189 3189 3190 3191 3191 3192 3193 3196 3199 3200 3203 3205 3206 3205 3206 3208 3210 3210 3210 3211 3211 3212 3212
3181 3181 3181 3180 3179 3179 3179 3178 3176 3177 3176 3176 3175 3174 3174 3175 3175 3176 3178 3181 3183 3184 3183 3184 3186 3189 3189 3190 3190 3191 3192 3192 3194 3196 3198 3200 3203 3205 3204 3202 3204 3208 3211 3211 3211 3212 3212 3212 3213
3180 3180 3179 3179 3179 3179 3180 3178 3177 3176 3176 3175 3175 3175 3175 3176 3177 3177 3178 3180 3183 3184 3184 3186 3187 3188 3190 3189 3191 3192 3193 3194 3194 3196 3198 3201 3203 3205 3205 3203 3205 3209 3210 3211 3211 3212 3213 3214 3214
3179 3179 3179 3178 3178 3179 3179 3177 3176 3175 3175 3175 3176 3177 3177 3178 3178 3178 3178 3180 3183 3185 3186 3187 3188 3188 3189 3189 3191 3192 3193 3193 3194 3196 3198 3201 3203 3205 3206 3206 3207 3210 3211 3211 3211 3213 3213 3215 3215
3177 3177 3177 3177 3177 3178 3178 3176 3175 3174 3174 3176 3176 3177 3178 3178 3179 3179 3180 3182 3184 3186 3187 3188 3188 3189 3188 3189 3191 3192 3193 3193 3194 3195 3198 3200 3202 3203 3205 3207 3208 3210 3212 3213 3212 3213 3210 3215 3215
3177 3177 3176 3177 3177 3177 3176 3175 3174 3173 3174 3174 3174 3176 3177 3179 3180 3181 3182 3183 3185 3186 3186 3187 3188 3189 3189 3188 3190 3191 3191 3192 3192 3195 3196 3198 3201 3202 3204 3206 3207 3209 3210 3212 3212 3212 3211 3215 3217
3175 3175 3175 3175 3175 3176 3175 3173 3173 3171 3170 3172 3174 3175 3177 3178 3179 3181 3184 3184 3185 3186 3186 3186 3187 3187 3188 3188 3189 3189 3190 3190 3191 3192 3194 3196 3199 3201 3203 3205 3206 3206 3209 3210 3211 3213 3213 3214 3216
3173 3174 3173 3173 3174 3175 3174 3170 3170 3170 3168 3171 3172 3174 3177 3179 3181 3183 3184 3185 3185 3185 3185 3186 3186 3186 3186 3187 3188 3189 3190 3190 3191 3191 3192 3193 3196 3198 3201 3202 3203 3204 3207 3210 3210 3211 3213 3214 3214
3172 3172 3172 3171 3172 3172 3171 3169 3167 3167 3168 3170 3172 3173 3176 3179 3182 3183 3184 3185 3185 3185 3186 3186 3186 3186 3186 3186 3187 3188 3190 3189 3190 3190 3191 3192 3193 3195 3197 3199 3201 3204 3206 3207 3209 3211 3212 3212 3212
3172 3171 3170 3170 3169 3169 3168 3168 3164 3164 3167 3170 3172 3172 3175 3178 3181 3184 3185 3185 3186 3187 3187 3188 3187 3187 3187 3187 3187 3187 3187 3188 3187 3188 3189 3191 3191 3192 3195 3197 3200 3203 3205 3206 3207 3210 3210 3210 3210
3170 3169 3168 3166 3166 3166 3164 3165 3163 3163 3166 3168 3170 3171 3173 3178 3179 3181 3184 3185 3188 3190 3190 3189 3188 3188 3187 3188 3188 3188 3188 3188 3187 3186 3187 3188 3190 3191 3193 3194 3198 3200 3202 3204 3206 3207 3208 3208 3208
3168 3168 3167 3167 3166 3165 3163 3164 3166 3164 3166 3168 3168 3170 3170 3173 3178 3182 3183 3185 3187 3187 3188 3190 3189 3189 3189 3189 3189 3189 3189 3188 3187 3187 3186 3186 3187 3189 3190 3192 3194 3197 3200 3202 3203 3204 3205 3207 3207
3167 3167 3167 3169 3168 3163 3163 3166 3169 3165 3165 3167 3168 3169 3170 3173 3177 3179 3182 3185 3184 3184 3184 3186 3189 3190 3189 3190 3190 3189 3189 3189 3188 3187 3186 3185 3185 3185 3187 3189 3190 3193 3195 3198 3200 3201 3202 3204 3204
3165 3165 3165 3164 3163 3163 3166 3169 3170 3168 3169 3168 3167 3170 3171 3174 3177 3179 3182 3183 3184 3183 3181 3183 3186 3190 3190 3188 3188 3189 3187 3187 3187 3186 3185 3184 3183 3182 3182 3184 3186 3187 3190 3192 3195 3197 3198 3200 3201
3164 3164 3164 3163 3165 3166 3164 3166 3166 3170 3170 3170 3169 3170 3172 3175 3178 3179 3183 3182 3180 3178 3177 3178 3180 3183 3184 3180 3176 3180 3183 3183 3183 3182 3182 3182 3181 3179 3178 3178 3180 3181 3183 3186 3187 3190 3193 3194 3195
3164 3162 3161 3162 3162 3162 3166 3166 3168 3169 3170 3169 3170 3171 3171 3172 3174 3176 3173 3173 3174 3174 3175 3176 3173 3178 3180 3176 3145 3157 3176 3179 3179 3178 3177 3177 3178 3177 3175 3175 3175 3176 3177 3178 3180 3183 3186 3187 3189
3162 3162 3161 3160 3162 3160 3161 3165 3165 3169 3168 3168 3168 3168 3169 3169 3170 3171 3171 3171 3174 3173 3174 3174 3174 3175 3179 3178 3175 3163 3169 3172 3171 3172 3174 3171 3172 3173 3172 3170 3170 3170 3171 3172 3174 3176 3178 3181 3183
Wind_Speed
7 8 12 8 9 11 15 7 15 16 14 4 9 5 5 4 6 3 13 16 15 14 12 14 15 15 16 16 15 13 11 11 12 10 10 10 11 10 9 8 7 6 5 7 8 8 9 9 9
6 8 7 10 15 17 10 15 15 6 10 9 8 3 2 8 9 6 16 17 15 13 13 14 15 15 15 15 14 12 11 10 10 9 9 10 9 7 7 7 5 4 5 7 9 9 10 10 10
7 7 11 7 14 16 13 15 12 13 10 9 2 2 0 2 6 11 14 15 15 15 13 13 15 15 15 14 13 12 10 9 8 8 8 8 7 6 6 5 4 4 5 7 9 9 10 11 12
11 9 11 15 15 6 15 13 15 7 6 5 5 3 5 10 10 7 12 12 13 15 14 12 14 15 15 15 13 12 11 9 8 8 8 7 7 7 7 6 4 4 5 6 8 8 9 9 12
11 11 11 11 12 14 4 5 10 4 6 8 2 2 5 11 8 5 12 12 11 13 11 10 11 14 14 14 13 12 12 11 9 9 7 7 7 7 7 6 4 4 4 5 8 9 8 9 9
12 12 12 13 7 8 5 4 2 1 7 4 6 1 5 12 7 1 12 13 12 9 4 7 11 13 13 13 13 12 12 12 11 11 9 9 7 6 5 4 3 3 4 6 8 9 9 9 9
14 14 16 11 8 6 2 4 3 7 6 6 10 7 2 10 5 2 14 14 13 11 6 7 10 12 12 12 13 13 13 11 11 11 10 9 8 6 5 4 3 5 5 7 9 8 9 10 9
9 9 14 12 11 9 3 2 1 4 7 8 8 8 3 8 7 14 12 14 14 11 6 7 11 10 10 10 11 11 10 12 13 11 11 9 7 6 6 5 4 5 5 7 8 9 9 10 8
8 6 9 11 12 9 3 0 4 4 6 11 7 10 5 7 7 6 11 9 14 11 8 7 10 9 8 8 10 10 9 12 14 11 11 9 8 6 5 3 3 4 5 7 8 9 8 8 8
9 8 9 8 9 9 10 5 10 5 8 8 9 11 6 10 10 13 7 4 9 10 7 6 7 7 6 5 6 8 8 11 16 14 11 9 8 6 4 4 4 4 4 5 7 8 8 8 7
9 4 8 10 8 9 11 10 5 8 12 10 7 5 2 8 10 11 15 6 0 7 8 8 5 2 9 6 5 6 7 11 17 15 13 8 8 7 7 5 4 4 3 6 8 10 10 9 8
5 6 5 6 5 4 7 10 6 6 12 12 15 6 2 5 12 12 12 8 9 3 7 8 6 5 4 4 3 3 4 9 15 17 15 10 8 7 7 7 6 4 3 8 10 11 9 11 9
9 5 2 0 2 2 1 5 5 10 9 15 20 19 10 10 9 8 6 3 6 5 5 7 6 6 5 5 4 3 3 9 12 16 13 10 10 9 8 7 5 5 4 9 11 14 7 14 8
4 6 2 4 3 5 6 3 6 7 6 7 15 18 16 8 6 5 5 1 1 6 1 8 8 6 6 5 4 3 3 9 11 11 10 13 9 8 10 6 10 8 6 8 12 14 11 11 11
4 5 4 4 4 4 9 7 10 9 6 6 10 13 13 15 11 9 6 4 1 5 1 3 6 5 4 4 2 3 4 7 10 12 11 11 8 5 4 11 2 12 9 9 10 13 13 12 11
9 8 9 10 8 9 9 8 10 10 8 7 7 10 7 12 16 13 8 3 2 2 3 6 5 5 4 5 4 5 4 5 9 10 10 11 9 5 3 7 11 10 9 9 12 12 11 8 4
5 6 3 4 10 8 10 8 10 8 10 9 7 9 6 7 12 15 11 4 1 4 2 3 3 2 3 6 7 7 6 7 8 10 10 12 12 9 5 11 13 12 10 10 11 13 12 10 7
13 11 9 6 6 11 7 6 11 8 8 9 9 7 6 5 8 13 12 6 3 4 3 4 1 2 3 5 8 8 8 9 9 11 10 12 12 12 14 10 11 11 10 12 15 14 9 13 7
6 6 7 6 4 12 7 8 11 10 10 14 13 10 6 7 5 4 8 5 3 0 5 5 3 4 5 5 8 9 9 7 8 9 12 12 12 12 9 13 12 15 10 12 5 10 9 11 11
6 7 8 7 1 9 11 16 16 15 21 12 14 13 5 4 5 6 10 11 6 3 5 5 4 2 6 3 7 7 10 8 10 9 10 11 12 13 15 14 15 15 12 9 4 9 11 10 8
10 11 6 12 7 7 12 19 11 11 14 13 13 14 12 5 6 9 11 11 5 5 4 5 4 2 3 4 6 5 8 8 6 8 8 9 11 13 14 14 10 17 14 12 8 7 9 8 7
3 2 4 3 7 8 9 7 7 7 10 12 11 10 10 7 3 5 7 7 6 6 4 4 4 3 1 3 4 2 4 5 7 7 9 10 11 14 15 15 13 18 15 13 11 9 7 9 9
3 3 7 9 7 9 7 5 7 11 10 7 7 9 10 9 1 4 6 7 8 5 3 2 2 1 1 2 3 1 4 6 9 10 10 12 12 15 16 18 19 18 17 19 14 13 10 8 12
7 9 11 14 14 3 6 3 9 3 8 9 9 9 12 15 14 14 8 3 4 8 4 2 1 1 0 1 1 3 2 5 7 7 8 11 13 16 17 19 20 19 19 20 17 15 10 9 11
8 7 5 3 2 5 7 5 6 3 5 6 8 8 9 21 19 12 10 7 5 2 3 4 5 4 3 3 4 4 5 5 6 8 8 10 12 13 17 20 21 23 21 19 18 17 15 14 13
8 6 4 2 2 4 6 5 4 8 8 7 8 6 8 12 17 17 13 13 7 9 5 1 4 7 7 7 6 7 8 10 9 9 9 9 11 14 17 19 22 21 24 24 23 20 21 19 16
4 5 5 4 1 1 7 14 13 15 10 8 4 6 8 8 12 15 11 17 22 14 12 11 12 12 10 10 11 10 8 9 13 13 12 12 11 13 18 19 22 23 24 26 27 24 24 25 22
4 4 6 3 3 1 2 8 16 19 14 12 14 10 7 4 7 17 12 28 21 17 13 18 25 22 27 27 20 15 16 14 12 14 15 14 14 14 16 21 23 24 23 25 29 29 28 28 26
4 5 3 4 1 6 2 2 8 14 11 7 7 7 7 9 10 7 7 6 11 15 24 20 18 19 20 30 26 24 20 20 18 18 16 16 17 18 17 18 23 25 26 26 26 30 30 29 29
3 6 10 2 3 3 3 4 12 10 13 6 7 9 9 9 10 5 7 9 9 11 17 20 30 13 16 29 23 20 21 24 25 21 22 18 19 20 20 18 20 23 26 28 29 28 30 32 31
Wind_Direction
89 52 70 62 101 123 111 117 138 135 136 177 155 166 200 262 224 261 182 172 167 169 156 157 158 159 161 162 158 152 152 150 146 145 145 156 160 162 158 155 163 173 198 205 197 190 188 190 194
69 50 119 128 100 104 81 133 147 133 116 151 172 218 277 284 250 241 174 162 160 165 162 161 162 166 172 172 166 161 164 168 158 160 164 166 164 167 171 162 164 195 219 225 223 215 211 211 210
79 78 82 122 99 92 102 127 135 152 133 152 120 144 46 53 191 165 168 164 156 156 159 163 166 172 175 176 171 169 175 184 176 182 181 177 183 189 197 196 213 211 224 215 221 213 208 212 217
85 68 77 90 131 128 129 130 161 167 149 166 324 303 112 126 107 173 178 166 154 158 161 165 167 176 177 176 176 175 181 195 196 195 196 193 205 210 216 220 210 212 202 200 207 207 204 206 211
63 70 84 111 120 121 138 158 162 226 275 301 256 71 105 104 112 147 181 172 156 161 163 169 174 174 178 175 178 180 183 192 206 207 202 206 214 212 206 200 186 196 198 204 206 204 200 198 210
86 82 92 88 135 108 135 143 125 146 317 296 219 336 106 109 76 172 177 170 160 166 167 175 177 170 175 178 184 188 195 196 198 210 205 213 212 207 195 190 190 194 193 185 184 199 192 193 190
92 94 85 85 109 106 127 54 38 334 330 325 286 292 145 126 98 125 170 171 167 163 174 179 189 184 183 188 192 196 203 203 205 209 210 213 204 195 188 181 182 165 176 168 174 183 191 192 185
95 101 98 80 111 129 194 28 290 314 310 312 302 290 233 129 130 154 165 164 174 176 178 183 178 191 192 198 207 206 224 209 211 210 211 211 206 192 191 177 174 164 168 162 161 168 181 191 189
103 125 111 95 89 63 108 81 80 17 313 320 296 314 241 177 96 136 160 151 177 188 189 177 185 184 200 230 213 223 241 216 215 208 215 210 209 196 195 201 185 189 168 161 164 160 165 188 187
134 113 91 87 77 48 77 46 34 10 2 333 312 292 218 170 110 75 116 136 181 189 196 196 179 194 207 222 210 224 237 233 212 214 223 213 211 182 190 210 194 206 185 185 161 155 162 176 181
146 76 80 91 92 70 60 46 24 22 20 349 328 325 274 155 128 93 74 110 88 211 206 217 204 217 212 213 206 219 234 220 202 211 206 198 217 194 200 224 227 213 208 202 169 159 157 177 180
96 122 106 100 106 99 45 20 15 24 11 23 22 53 96 165 147 104 83 50 53 193 217 226 214 221 221 207 191 204 198 220 217 204 196 202 206 215 212 224 253 274 200 172 167 153 157 180 187
105 134 234 230 50 183 311 4 343 25 7 48 41 60 112 139 143 122 174 89 44 21 253 230 235 233 241 240 250 287 244 210 204 190 191 211 201 212 226 242 258 209 194 158 167 171 148 165 171
161 198 217 205 226 217 244 299 310 345 359 15 50 45 61 120 166 135 111 98 147 356 272 239 240 234 247 243 267 280 238 204 201 187 186 209 215 233 233 273 256 207 195 158 154 168 169 170 176
204 186 216 231 208 221 218 262 306 289 308 342 44 45 40 55 86 104 101 81 74 326 274 172 227 228 253 240 226 233 212 210 208 209 203 201 205 225 244 292 199 204 202 165 162 170 176 180 180
217 239 253 241 237 246 236 298 327 281 291 318 3 30 28 45 62 67 72 136 204 321 101 212 238 217 247 260 253 241 208 221 231 214 206 201 188 198 218 120 168 187 201 185 174 165 174 175 170
247 229 265 279 220 242 250 290 322 298 282 289 343 24 10 38 64 71 68 55 20 157 147 89 174 237 259 247 246 239 239 243 248 239 219 202 190 182 147 145 156 183 204 205 196 177 179 175 196
328 324 299 275 227 216 250 253 312 302 280 288 297 343 23 19 50 70 64 64 65 153 186 207 152 243 273 237 248 248 246 244 253 245 238 212 201 197 189 179 182 169 193 204 206 173 173 173 188
305 290 272 254 252 227 267 286 309 284 272 266 273 279 18 43 2 21 53 44 51 134 173 173 122 21 1 253 244 246 242 240 243 255 239 225 202 195 179 191 191 204 197 207 193 176 185 191 209
262 282 289 262 296 242 267 289 298 294 288 294 279 281 323 338 18 10 43 38 40 45 157 164 139 22 7 295 251 216 226 242 243 251 244 239 215 200 208 207 209 223 202 199 211 193 213 198 203
265 286 293 296 294 240 273 287 283 295 261 262 275 271 271 314 335 340 358 25 47 64 130 146 138 88 344 300 270 223 232 245 278 257 260 231 221 208 210 203 221 178 180 191 215 221 223 218 214
275 70 327 5 251 257 274 278 254 241 237 246 250 255 266 268 337 359 27 38 63 77 81 138 131 116 13 336 295 246 231 248 237 245 234 228 215 215 212 203 194 189 196 201 215 220 226 228 222
268 300 291 288 285 298 282 237 290 252 214 226 246 251 259 242 102 84 66 41 49 46 72 54 96 105 26 349 11 285 252 255 258 255 248 236 225 210 216 209 204 201 204 194 215 212 220 217 216
270 285 286 278 284 278 154 257 28 73 223 245 247 240 243 232 227 223 213 197 10 11 24 356 34 257 298 279 352 360 288 257 273 269 258 243 227 219 213 217 213 203 202 210 220 214 215 201 194
252 291 330 334 10 220 232 71 25 69 261 251 241 229 234 227 222 209 217 219 257 321 356 347 326 303 294 316 305 307 310 315 275 271 271 254 239 219 220 221 221 216 212 213 220 223 218 209 196
225 266 226 244 221 286 70 81 109 116 167 240 227 239 247 208 204 225 234 249 258 239 230 212 326 302 308 312 313 328 305 305 305 289 267 264 251 229 217 218 225 222 218 222 222 225 228 227 215
296 275 275 219 269 89 115 100 115 117 118 147 164 169 166 191 220 228 243 264 252 270 251 257 270 289 302 302 293 300 315 302 301 299 281 264 255 244 234 227 225 228 227 225 226 225 229 233 232
335 272 261 236 143 217 194 166 147 158 150 144 138 146 129 100 242 224 258 273 255 263 266 269 264 267 278 269 272 293 296 290 280 279 286 283 267 256 248 239 233 228 230 232 228 229 232 232 232
359 52 254 249 203 159 170 122 156 173 166 187 219 236 250 303 326 308 246 268 291 310 248 268 255 253 270 286 298 261 271 270 271 270 264 272 271 264 258 251 241 233 229 231 231 228 228 234 234
99 51 36 16 230 204 178 166 156 177 170 197 277 284 291 303 297 203 267 293 286 280 273 278 280 293 244 273 277 239 257 271 271 272 269 251 259 265 261 255 246 240 232 229 229 230 230 233 235